TimeCDT,TemperatureF,Dew PointF,Humidity,Sea Level PressureIn,VisibilityMPH,Wind Direction,Wind SpeedMPH,Gust SpeedMPH,PrecipitationIn,Events,Conditions,WindDirDegrees,DateUTC
12:53 AM,54.0,46.0,75,30.10,10.0,ENE,9.2,-,N/A,,Scattered Clouds,70,2012-03-26 05:53:00
1:53 AM,54.0,44.1,69,30.11,10.0,ENE,10.4,-,N/A,,Mostly Cloudy,70,2012-03-26 06:53:00
2:53 AM,53.1,42.1,66,30.13,10.0,ENE,15.0,-,N/A,,Overcast,60,2012-03-26 07:53:00
3:53 AM,53.1,39.0,59,30.12,10.0,East,15.0,21.9,N/A,,Overcast,80,2012-03-26 08:53:00
4:53 AM,52.0,37.9,59,30.13,10.0,East,15.0,-,N/A,,Partly Cloudy,90,2012-03-26 09:53:00
5:53 AM,51.1,42.1,71,30.14,10.0,East,17.3,-,0.00,Rain,Light Rain,90,2012-03-26 10:53:00
6:04 AM,50.0,42.8,76,30.15,10.0,East,17.3,-,0.00,,Mostly Cloudy,90,2012-03-26 11:04:00
6:33 AM,48.2,44.6,87,30.16,8.0,East,23.0,-,0.00,,Overcast,90,2012-03-26 11:33:00
6:53 AM,48.0,44.1,86,30.17,9.0,East,25.3,29.9,0.00,,Overcast,90,2012-03-26 11:53:00
7:53 AM,46.9,42.1,83,30.20,10.0,ESE,26.5,33.4,N/A,,Overcast,110,2012-03-26 12:53:00
8:36 AM,46.4,39.2,76,30.20,10.0,East,23.0,-,N/A,,Scattered Clouds,100,2012-03-26 13:36:00
8:53 AM,46.9,37.0,68,30.21,10.0,ESE,28.8,33.4,N/A,,Clear,110,2012-03-26 13:53:00
9:53 AM,48.9,35.1,59,30.21,10.0,ESE,21.9,34.5,N/A,,Clear,110,2012-03-26 14:53:00
10:53 AM,50.0,35.1,57,30.21,10.0,ESE,23.0,32.2,N/A,,Clear,120,2012-03-26 15:53:00
11:53 AM,53.1,35.1,50,30.19,10.0,ESE,21.9,28.8,N/A,,Partly Cloudy,120,2012-03-26 16:53:00
12:53 PM,55.0,34.0,45,30.18,10.0,SE,25.3,33.4,N/A,,Mostly Cloudy,130,2012-03-26 17:53:00
1:53 PM,55.9,35.1,45,30.16,10.0,ESE,24.2,33.4,N/A,,Partly Cloudy,120,2012-03-26 18:53:00
2:53 PM,54.0,35.1,49,30.12,10.0,ESE,24.2,33.4,N/A,,Mostly Cloudy,120,2012-03-26 19:53:00
3:53 PM,55.0,36.0,49,30.10,10.0,ESE,25.3,32.2,N/A,,Clear,110,2012-03-26 20:53:00
4:53 PM,53.1,36.0,52,30.08,10.0,ESE,24.2,32.2,N/A,,Clear,110,2012-03-26 21:53:00
5:53 PM,51.1,36.0,56,30.08,10.0,East,19.6,25.3,N/A,,Overcast,100,2012-03-26 22:53:00
6:53 PM,50.0,35.1,57,30.07,10.0,East,21.9,28.8,N/A,,Clear,100,2012-03-26 23:53:00
7:53 PM,46.9,34.0,61,30.05,10.0,ESE,23.0,31.1,N/A,,Clear,110,2012-03-27 00:53:00
8:53 PM,46.0,34.0,63,30.04,10.0,ESE,17.3,-,N/A,,Clear,110,2012-03-27 01:53:00
9:53 PM,46.9,30.0,52,30.02,10.0,ESE,26.5,35.7,N/A,,Clear,120,2012-03-27 02:53:00
10:53 PM,46.9,30.0,52,29.99,10.0,SE,28.8,35.7,N/A,,Clear,130,2012-03-27 03:53:00
11:53 PM,48.0,28.9,48,29.96,10.0,SE,27.6,39.1,N/A,,Clear,130,2012-03-27 04:53:00